TimeEST,TemperatureF,Dew PointF,Humidity,Sea Level PressureIn,VisibilityMPH,Wind Direction,Wind SpeedMPH,Gust SpeedMPH,PrecipitationIn,Events,Conditions,WindDirDegrees,DateUTC
12:54 AM,14.0,10.0,84,30.27,10.0,Calm,Calm,-,N/A,,Clear,0,2012-12-07 05:54:00
1:54 AM,15.1,10.9,84,30.27,10.0,Calm,Calm,-,N/A,,Clear,0,2012-12-07 06:54:00
2:54 AM,15.1,12.0,88,30.25,10.0,Calm,Calm,-,N/A,,Clear,0,2012-12-07 07:54:00
3:54 AM,16.0,12.9,88,30.24,10.0,Calm,Calm,-,N/A,,Clear,0,2012-12-07 08:54:00
4:54 AM,16.0,12.9,88,30.22,10.0,Calm,Calm,-,N/A,,Clear,0,2012-12-07 09:54:00
5:54 AM,16.0,12.9,88,30.21,10.0,ESE,4.6,-,N/A,,Clear,120,2012-12-07 10:54:00
6:54 AM,17.1,14.0,88,30.20,10.0,South,3.5,-,N/A,,Clear,180,2012-12-07 11:54:00
7:54 AM,19.0,15.1,85,30.19,10.0,South,4.6,-,N/A,,Overcast,170,2012-12-07 12:54:00
8:54 AM,21.0,15.1,78,30.19,10.0,SSW,6.9,-,N/A,,Partly Cloudy,200,2012-12-07 13:54:00
9:54 AM,23.0,15.1,72,30.16,10.0,SSE,9.2,-,N/A,,Clear,160,2012-12-07 14:54:00
10:54 AM,24.1,16.0,71,30.13,10.0,SSE,8.1,-,N/A,,Clear,150,2012-12-07 15:54:00
11:54 AM,27.0,17.1,66,30.12,10.0,South,4.6,-,N/A,,Partly Cloudy,190,2012-12-07 16:54:00
12:54 PM,28.0,18.0,66,30.09,10.0,SSE,8.1,-,N/A,,Partly Cloudy,150,2012-12-07 17:54:00
1:54 PM,30.0,19.0,64,30.06,10.0,SSE,8.1,-,N/A,,Clear,160,2012-12-07 18:54:00
2:54 PM,30.0,19.9,66,30.06,10.0,SSE,5.8,-,N/A,,Clear,160,2012-12-07 19:54:00
3:54 PM,28.9,19.9,69,30.05,10.0,South,4.6,-,N/A,,Clear,180,2012-12-07 20:54:00
4:54 PM,28.9,21.0,72,30.05,10.0,South,5.8,-,N/A,,Partly Cloudy,190,2012-12-07 21:54:00
5:54 PM,28.9,21.9,75,30.05,10.0,South,3.5,-,N/A,,Overcast,170,2012-12-07 22:54:00
6:54 PM,27.0,21.9,81,30.05,10.0,SSE,4.6,-,N/A,,Clear,160,2012-12-07 23:54:00
8:54 PM,28.0,24.1,85,30.03,10.0,South,3.5,-,N/A,,Partly Cloudy,180,2012-12-08 01:54:00
9:54 PM,28.0,24.1,85,30.02,10.0,Calm,Calm,-,N/A,,Overcast,0,2012-12-08 02:54:00
10:54 PM,28.9,25.0,85,30.02,10.0,Calm,Calm,-,N/A,,Mostly Cloudy,0,2012-12-08 03:54:00
11:54 PM,27.0,25.0,92,30.02,10.0,South,3.5,-,N/A,,Overcast,180,2012-12-08 04:54:00